Regional Weather Roundup
Issued by NWS Little Rock, AR

Home | Current Version | Previous Version | Text Only | Print | Product List | Glossary Off
Versions: 1 2 3 4 5 6 7 8 9 10 11 12 13 14 15 16 17 18 19 20 21 22 23 24 25 26 27 28 29 30 31 32 33 34 35 36 37 38 39 40 41 42 43 44 45 46 47 48 49 50

000
ASUS44 KLZK 221605
RWRLZK

WEATHER ROUNDUP FOR ARKANSAS
NATIONAL WEATHER SERVICE LITTLE ROCK AR
1000 AM CST SAT NOV 22 2014

NOTE: "FAIR" INDICATES FEW OR NO CLOUDS BELOW 12,000 FEET WITH NO
SIGNIFICANT WEATHER AND/OR OBSTRUCTIONS TO VISIBILITY.

ARZ001-003-010-029-221700-
NORTHWEST ARKANSAS

CITY           SKY/WX    TMP DP  RH WIND       PRES   REMARKS
FAYETTEVILLE   CLOUDY    54  51  90 S12       30.11F
FORT SMITH     LGT RAIN  53  51  93 NE8       30.13S FOG
HARRISON       CLOUDY    53  51  93 S14       30.11F
BENTONVILLE    CLOUDY    54  50  87 S17G23    30.08F
ROGERS         CLOUDY    54  51  90 S20       30.07F
SILOAM SPGS    CLOUDY    54  46  76 S14G20    30.09F
HIGHFILL       LGT RAIN  54  51  90 S17       30.07F
SPRINGDALE     PTSUNNY   54  52  94 S12       30.12S
$$

ARZ004-005-016-221700-
NORTH CENTRAL ARKANSAS

CITY           SKY/WX    TMP DP  RH WIND       PRES   REMARKS
BATESVILLE     CLOUDY    55  48  76 S9        30.19F
FLIPPIN        CLOUDY    54  46  76 S7        30.15R
MTN HOME       LGT RAIN  54  47  77 SW10G20   30.14R
$$

ARZ040-041-221700-
WEST CENTRAL ARKANSAS

CITY           SKY/WX    TMP DP  RH WIND       PRES   REMARKS
MENA           CLOUDY    55  54  94 CALM      30.14F
MOUNT IDA      LGT RAIN  55  52  89 CALM      30.14F
$$

ARZ009-017-025-026-028-221700-
NORTHEAST ARKANSAS

CITY           SKY/WX    TMP DP  RH WIND       PRES   REMARKS
CORNING        FAIR      59  50  72 S14G24    30.20F
JONESBORO      MOSUNNY   56  49  77 S13G20    30.21F
NEWPORT        PTSUNNY   60  52  75 S15       30.21F
WALNUT RIDGE   MOSUNNY   57  30  35 S17       30.19F
BLYTHEVILLE    PTSUNNY   64  46  52 S15       30.23F
$$

ARZ022-023-033-042-044-221700-
CENTRAL ARKANSAS

CITY           SKY/WX    TMP DP  RH WIND       PRES   REMARKS
LITTLE ROCK    PTSUNNY   58  51  78 S5        30.19F
N LITTLE ROCK  PTSUNNY   56  52  84 S12       30.19F
JACKSONVILLE   CLOUDY    59  50  72 S9        30.19F
SEARCY         CLOUDY    58  52  80 S12       30.21F
HOT SPRINGS    CLOUDY    56  50  80 S7        30.19S
RUSSELLVILLE   LGT RAIN  52  50  93 CALM      30.17S FOG
CLINTON        LGT RAIN  48  48 100 CALM      30.21S
$$

ARZ036-221700-
EAST ARKANSAS

CITY           SKY/WX    TMP DP  RH WIND       PRES   REMARKS
WEST MEMPHIS   CLOUDY    60  45  57 S14       30.24S
$$

ARZ050-053-066-070-073-221700-
SOUTHWEST ARKANSAS

CITY           SKY/WX    TMP DP  RH WIND       PRES   REMARKS
ARKADELPHIA    CLOUDY    56  55  96 S3        30.18F FOG
CAMDEN         PTSUNNY   57  52  82 NE8       30.18F
TEXARKANA      CLOUDY    58  52  80 SE12      30.14F
EL DORADO      CLOUDY    60  52  74 SE8       30.18S
DE QUEEN       LGT RAIN  56  53  90 CALM      30.13S FOG
$$

ARZ056-057-069-221700-
SOUTHEAST ARKANSAS

CITY           SKY/WX    TMP DP  RH WIND       PRES   REMARKS
PINE BLUFF     CLOUDY    59  49  69 SE9       30.20F
STUTTGART      PTSUNNY   55  48  76 SE8       30.22S
MONTICELLO     CLOUDY    59  47  64 SE7       30.20F

$$




USA.gov is the U.S. government's official web portal to all federal, state and local government web resources and services.